Hourly Data Report for May 24, 2020

STE-ANNE-DE-BELLEVUE 1
QUEBEC
Current Station Operator: ECCC - MSC

45°25'38.000" N
73°55'45.000" W
39.00 m
702FHL8
71377
WVQ

Download Data

Hourly Data (May 2020)
Hourly Data Report for May 24, 2020
TIME
LST
Temp Definition
°C
Dew Point Definition
°C
Rel Hum Definition
%
Precip. Amount Definition
mm

Wind Dir Definition
10's deg

Wind Spd Definition
km/h
Visibility Definition
km
Stn Press Definition
kPa
Hmdx Definition


Wind Chill Definition


Weather Definition


00:00 12.6 1.1 45 0.0 2 11   101.64     LegendNANA
01:00 11.6 1.1 48 0.0 3 10   101.68     LegendNANA
02:00 10.3 -0.1 49 0.0 5 8   101.71     LegendNANA
03:00 9.2 -0.8 50 0.0 3 9   101.70     LegendNANA
04:00 8.6 -1.0 51 0.0 3 9   101.71     LegendNANA
05:00 8.7 -0.2 54 0.0 3 7   101.74     LegendNANA
06:00 10.6 0.4 49 0.0 4 8   101.79     LegendNANA
07:00 12.9 1.6 46 0.0 5 10   101.81     LegendNANA
08:00 15.1 2.9 44 0.0 6 7   101.83     LegendNANA
09:00 18.0 4.3 40 0.0 9 5   101.80     LegendNANA
10:00 20.1 5.0 37 0.0 14 6   101.78     LegendNANA
11:00 22.4 7.9 39 0.0 15 7   101.71     LegendNANA
12:00 22.6 8.7 41 0.0 9 5   101.67     LegendNANA
13:00 23.3 9.7 42 0.0 21 5   101.59     LegendNANA
14:00 24.0 10.1 41 0.0 13 10   101.52 25   LegendNANA
15:00 25.8 9.2 35 0.0 12 13   101.45 27   LegendNANA
16:00 25.1 8.8 36 0.0 12 12   101.43 26   LegendNANA
17:00 24.3 9.9 40 0.0 13 10   101.38 26   LegendNANA
18:00 23.1 8.5 39 0.0 12 11   101.35     LegendNANA
19:00 22.7 7.2 37 0.0 11 8   101.30     LegendNANA
20:00 21.6 6.6 38 0.0 12 11   101.29     LegendNANA
21:00 20.2 6.7 41 0.0 11 8   101.31     LegendNANA
22:00 19.7 7.1 44 0.0 13 9   101.28     LegendNANA
23:00 19.9 7.0 43 0.0 15 11   101.27     LegendNANA

Notes on Data Quality.

Legend

  • E = Estimated
  • M = Missing
  • NA = Not Available*
  • [empty] = Indicates an unobserved value
Date modified: